Flag for Ukraine Weather past 2 weeks in L'viv, Ukraine

Now
81 °F

Sunny.


Feels Like: 81 °F
Forecast: 60 / 83 °F
Wind: 6 mph from Northeast

Location: L'Viv Airport

Current Time: Aug 3, 2015 at 8:24:03 PM

Latest Report: Aug 3, 2015 at 8:00 PM


Visibility: 10 mi

Pressure: 30.09 "Hg

Humidity: 45%

Dew point: 57 °F

Location of L'vivLocation

Historic Weather in L'viv — Graph

°F

L'viv temperature yesterday

Maximum temperature yesterday: 82 °F (at 3:30 PM)
Minimum temperature yesterday: 54 °F (at 5:00 AM)
Average temperature yesterday: 69 °F

Past Weeks' High & Low Weather Summary

 TemperatureHumidityPressure
High91 °F (Jul 23, 4:30 PM)100% (Jul 20, 6:30 AM)30.18 "Hg (Jul 20, 6:30 AM)
Low46 °F (Aug 1, 4:00 AM)32% (Aug 2, 3:30 PM)29.71 "Hg (Jul 27, 8:30 PM)
Average68 °F74%29.95 "Hg
* Reported Jul 19 7:00 PM — Aug 3 7:00 PM, L'viv, Weather by CustomWeather, © 2015

Note: Actual official high and low records may vary slightly from our data, if they occured in-between our weather recording intervals... More about our weather records

Advertising

L'viv weather history for previous 24 hours

 ConditionsComfort  
Time TempWeatherWind HumidityBarometerVisibility
7:00 PM
Mon, Aug 3
82 °FPassing clouds.3 mph40%30.09 "HgN/A
6:30 PM84 °FSunny.1 mph37%30.09 "Hg10 mi
6:00 PM84 °FSunny.3 mph37%30.12 "Hg10 mi
5:30 PM84 °FPassing clouds.3 mph35%30.12 "HgN/A
5:00 PM82 °FSunny.1 mph40%30.12 "Hg10 mi
4:30 PM82 °FSunny.1 mph40%30.12 "Hg10 mi
4:00 PM84 °FPassing clouds.6 mph33%30.12 "HgN/A
3:30 PM82 °FSunny.1 mph35%30.12 "Hg10 mi
3:00 PM82 °FPassing clouds.6 mph40%30.12 "HgN/A
2:30 PM82 °FPassing clouds.6 mph35%30.15 "HgN/A
2:00 PM81 °FSunny.6 mph42%30.15 "Hg10 mi
1:30 PM81 °FPassing clouds.6 mph45%30.15 "HgN/A
1:00 PM81 °FSunny.6 mph42%30.15 "Hg10 mi
12:30 PM81 °FPassing clouds.6 mph48%30.15 "HgN/A
12:00 PM79 °FPassing clouds.6 mph45%30.15 "HgN/A
11:30 AM79 °FPassing clouds.8 mph48%30.15 "HgN/A
11:00 AM77 °FPassing clouds.8 mph47%30.15 "HgN/A
10:30 AM75 °FSunny.6 mph50%30.15 "Hg10 mi
10:00 AM73 °FSunny.8 mph53%30.15 "Hg10 mi
9:30 AM72 °FSunny.8 mph57%30.15 "Hg10 mi
9:00 AM72 °FSunny.8 mph57%30.15 "Hg10 mi
8:30 AM70 °FSunny.8 mph60%30.12 "Hg10 mi
8:00 AM68 °FSunny.3 mph64%30.15 "Hg10 mi
7:30 AM64 °FSunny.6 mph73%30.12 "Hg10 mi
7:00 AM64 °FSunny.6 mph68%30.12 "Hg10 mi
6:00 AM59 °FClear.6 mph82%30.12 "Hg10 mi
5:30 AM61 °FClear.6 mph77%30.12 "Hg10 mi
5:00 AM64 °FClear.6 mph68%30.12 "Hg10 mi
4:30 AM63 °FClear.3 mph73%30.15 "Hg10 mi
4:00 AM63 °FClear.3 mph73%30.15 "Hg10 mi
3:30 AM63 °FClear.6 mph73%30.15 "Hg10 mi
3:00 AM64 °FClear.6 mph73%30.15 "Hg10 mi
2:30 AM64 °FClear.6 mph73%30.15 "Hg10 mi
2:00 AM66 °FClear.6 mph68%30.15 "Hg10 mi
1:30 AM66 °FClear.6 mph68%30.15 "Hg10 mi
1:00 AM68 °FClear.6 mph64%30.15 "Hg10 mi
12:30 AM68 °FClear.6 mph69%30.15 "Hg10 mi
12:00 AM63 °FClear.3 mph94%30.15 "Hg10 mi
11:30 PM
Sun, Aug 2
64 °FClear.No wind88%30.15 "Hg10 mi
11:00 PM64 °FClear.No wind88%30.15 "Hg10 mi
10:30 PM64 °FClear.No wind88%30.15 "Hg10 mi
10:00 PM66 °FSunny.3 mph88%30.15 "Hg10 mi
9:30 PM68 °FSunny.3 mph78%30.15 "Hg10 mi
9:00 PM72 °FSunny.3 mph69%30.15 "Hg10 mi
8:30 PM75 °FSunny.3 mph57%30.15 "Hg10 mi
8:00 PM77 °FSunny.3 mph61%30.15 "Hg10 mi
Weather by CustomWeather, © 2015

See weather overviewHow to use our weather pages